Location: Valdosta
(30.8330°N, 83.2790°W)
Time: 07:02:50
(UTC-04:00)

Daily predictions for brighter satellites

Satellite Brightness Start Highest point End
(mag) Time Altitude Azimuth Time Altitude Azimuth Time Altitude Azimuth
Meteor 2-1 Rocket 4.4 19:12:59 10° S 19:18:33 54° E 19:24:14 10° NNE
Cosmos 1315 Rocket 4.2 19:16:50 10° NNE 19:19:52 20° ENE 19:22:54 10° SE
Cosmos 2218 Rocket 4.2 19:15:09 10° S 19:21:18 81° W 19:27:27 10° N
YAOGAN 1 2.6 19:17:33 10° SSE 19:21:46 57° ENE 19:26:00 10° N
EO 1 Del DPAF 3.2 19:20:00 10° NNE 19:23:52 82° ESE 19:27:41 10° S
SMAP 3.5 19:20:36 10° S 19:25:13 68° WSW 19:29:51 10° NNW
Tiangong 1 1.7 19:24:42 10° WNW 19:27:19 45° SW 19:29:54 10° SE
Meteor 1-11 4.2 19:24:22 10° N 19:30:10 82° E 19:35:51 10° S
ATLAS 2A CENTAUR R/B 2.4 19:31:17 10° SSE 19:31:43 10° SSE 19:32:12 10° SE
SPOT 3 Rocket 3.9 19:26:56 10° SE 19:31:49 43° ENE 19:36:42 10° N
ERS-2 2.4 19:28:34 10° S 19:32:14 75° WSW 19:35:56 10° NNW
USA 267 4.0 19:26:46 10° ENE 19:32:28 32° SE 19:38:07 10° S
Cosmos 2056 Rocket 3.7 19:27:33 10° NNW 19:32:51 80° WSW 19:38:00 10° S
Cosmos 2151 3.1 19:30:03 10° N 19:34:14 53° E 19:38:21 10° SSE
Cosmos 1339 Rocket 4.5 19:29:06 10° N 19:35:23 68° E 19:41:32 10° SSE
CZ-3 Stage 3 -0.5 19:33:32 10° W 19:35:28 84° SSW 19:36:48 16° E
ATLAS 3B CENTAUR R/B 3.9 19:33:05 10° WSW 19:36:27 24° S 19:42:49 10° SE
Cosmos 1727 Rocket 4.0 19:30:48 10° N 19:37:08 69° E 19:43:24 10° SSE
Cosmos 468 4.4 19:32:15 10° S 19:37:25 70° ESE 19:42:37 10° NNE
Cosmos 1484 Rocket 4.3 19:34:43 10° S 19:38:14 39° W 19:41:44 10° NNW
ASTRO E2 2.7 19:34:15 10° W 19:38:15 81° N 19:41:35 14° E
GRACE-2 3.9 19:35:50 10° SSE 19:38:18 43° E 19:40:46 10° NNE
Cosmos 44 Rocket 3.2 19:35:21 10° SSW 19:40:00 64° ESE 19:44:40 10° NNE
GRACE-1 3.7 19:39:06 10° SSE 19:41:37 54° E 19:44:08 10° N
RESURS DK-1 2.8 19:38:27 10° N 19:42:20 39° ENE 19:46:11 10° SE
Cosmos 2219 Rocket 3.9 19:40:07 10° NNE 19:42:26 12° ENE 19:43:15 12° ENE
GP-B 3.4 19:40:33 10° N 19:44:58 71° W 19:49:23 10° S
Cosmos 1726 3.0 19:42:37 10° SSE 19:45:47 27° E 19:48:56 10° NNE
Cosmos 2098 Rocket 3.7 19:42:45 10° SSE 19:46:26 35° E 19:51:02 10° NNE
Atlas Centaur 2 1.9 19:45:59 10° W 19:50:30 78° S 19:54:54 17° ESE
Cosmos 1452 Rocket 3.6 19:45:22 10° N 19:50:31 54° ENE 19:55:38 10° SSE
Cosmos 1703 3.2 19:47:38 10° N 19:51:34 86° W 19:55:27 10° S
SKYMED 2 4.3 19:47:49 10° N 19:52:05 58° WNW 19:56:19 10° SSW
Cosmos 2058 2.9 19:48:04 10° N 19:52:15 89° W 19:56:22 10° S
FALCON 9 R/B 2.3 19:51:45 10° W 19:53:53 28° SSW 19:57:27 10° SE
Delta 2 Rocket 3.9 19:50:39 10° WNW 19:54:12 37° N 19:56:09 20° NE
BREEZE-M DEB (TANK) 2.0 19:52:32 10° NNW 19:54:21 30° NE 19:54:39 28° ENE
Cosmos 1743 Rocket 4.2 19:51:35 10° NNW 19:55:54 58° W 20:00:14 10° S
Cosmos 2221 2.4 19:52:09 10° S 19:56:26 77° E 20:00:45 10° N
PSLV R/B 3.4 19:53:44 10° SW 19:56:43 46° SSE 19:57:54 29° E
METEOR-M 4.2 19:52:38 10° SSE 19:57:59 84° WSW 20:03:21 10° NNW
SL-16 R/B 3.8 19:52:51 10° NW 19:58:04 38° WSW 20:03:16 10° S
Cosmos 1908 3.4 19:54:36 10° S 19:58:30 74° W 20:02:25 10° N
ISS -0.6 19:58:10 10° W 19:59:37 12° SW 20:01:04 10° SSW
CZ-4C R/B 1.9 19:56:23 10° SSW 20:01:21 83° ESE 20:06:56 10° NNE
NOAA 12 4.0 19:58:09 10° SSE 20:03:23 70° ENE 20:08:40 10° N
Cosmos 2237 4.3 19:59:53 10° N 20:05:29 53° ENE 20:11:02 10° SE
SL-24 R/B - RUBIN 2 3.5 20:02:30 10° NNW 20:07:08 63° ENE 20:10:32 16° SE
H-2A R/B 3.6 20:07:32 29° ENE 20:07:32 29° ENE 20:10:47 10° NNE
Iridium 4 Rocket 3.6 20:03:20 10° S 20:08:40 76° E 20:14:27 10° N
BREEZE-M R/B 1.8 20:07:40 10° SW 20:10:04 72° SE 20:10:42 48° ENE
Cosmos 921 Rocket 2.9 20:05:38 10° N 20:10:04 77° ENE 20:14:23 10° SSE
Cosmos 2237 Rocket 4.2 20:12:43 10° NNE 20:13:12 11° NE 20:13:12 11° NE
CZ-4 R/B 4.5 20:12:33 10° SW 20:15:33 19° W 20:18:31 10° NW
DELTA 2 R/B (1) 4.1 20:11:34 10° WNW 20:16:56 46° NNE 20:19:09 31° ENE
Cosmos 2227 Rocket 2.9 20:12:30 10° SSE 20:17:20 30° ESE 20:17:28 30° E
ALOS 2.4 20:17:28 10° S 20:22:07 77° WSW 20:26:48 10° NNW
Delta 198 4.3 20:19:40 10° SW 20:22:47 27° S 20:23:07 26° SSE
Skynet4D Del rocket 4.4 20:17:14 10° W 20:23:56 65° S 20:27:50 30° ESE
Cosmos 1300 2.5 20:26:58 10° S 20:30:46 76° E 20:31:27 57° NNE
Cosmos 1535 Rocket 4.4 20:26:49 10° S 20:32:58 84° W 20:39:06 10° N
Cosmos 1420 Rocket 4.1 20:29:36 10° NNW 20:34:55 76° WSW 20:40:09 10° S
Meteor 2-2 Rocket 4.2 20:29:22 10° S 20:34:57 55° E 20:40:28 10° NNE
Cosmos 2360 Rocket 3.2 20:32:45 10° NNW 20:38:09 46° WSW 20:43:30 10° S
Hubble Space Telescope 2.1 20:35:42 10° SW 20:38:43 28° S 20:38:43 28° S
Thor Agena Rocket 4.2 20:35:15 10° N 20:40:12 54° WNW 20:45:06 10° SSW
COSMOS 2428 2.5 20:36:13 10° NNW 20:41:54 74° ENE 20:44:03 39° SE
Cosmos 2219 4.2 20:38:16 10° SW 20:43:47 47° WNW 20:49:19 10° N
Cosmos 2333 Rocket 3.1 20:39:50 10° N 20:43:38 32° NNE 20:43:38 32° NNE
Sich 1 4.2 20:42:12 10° N 20:44:34 31° N 20:44:34 31° N
Cosmos 2297 Rocket 3.0 20:49:30 10° S 20:52:50 35° SSE 20:52:50 35° SSE
Cosmos 1805 Rocket 4.3 20:51:31 10° NNW 20:55:47 52° W 21:00:05 10° S
FengYun 1-2 T 4.3 20:50:38 10° S 20:56:07 73° WSW 21:01:37 10° NNW
Centaur D AC-29 1.8 20:51:57 10° W 20:59:12 50° SSW 20:59:12 50° SSW
USA 267 3.7 21:12:42 33° NNE 21:15:31 56° NW 21:21:51 10° WSW
Cosmos 2219 Rocket 3.1 21:21:18 10° NNW 21:25:02 43° NW 21:25:02 43° NW
Atlas Centaur 2 3.6 21:34:27 10° W 21:37:32 32° WSW 21:37:32 32° WSW
Cosmos 2227 Rocket 4.2 21:56:26 10° WSW 21:59:24 24° W 21:59:24 24° W
